Météo par heure à Jaunde

Ce jour, 3 Mars, Mercredi

Heure Température Précipitation Vent Pression Humidité
00:00 +23°C° 0 mm 1 m/s 696 mmHg 92%
01:00 +23°C° 0 mm 1 m/s 696 mmHg 95%
02:00 +23°C° 0 mm 1 m/s 696 mmHg 95%
03:00 +23°C° 0 mm 1 m/s 695 mmHg 95%
04:00 +20°C° 0 mm 0 m/s 695 mmHg 96%
05:00 +20°C° 0 mm 0 m/s 695 mmHg 95%
06:00 +21°C° 0 mm 0 m/s 695 mmHg 95%
07:00 +21°C° 0 mm 0 m/s 696 mmHg 94%
08:00 +26°C° 0 mm 1 m/s 696 mmHg 79%
09:00 +29°C° 0 mm 1 m/s 697 mmHg 64%
10:00 +32°C° 0 mm 1 m/s 697 mmHg 49%
11:00 +35°C° 0 mm 2 m/s 697 mmHg 41%
12:00 +37°C° 0 mm 2 m/s 696 mmHg 33%
13:00 +38°C° 0 mm 2 m/s 696 mmHg 27%
14:00 +38°C° 0 mm 2 m/s 695 mmHg 26%
15:00 +38°C° 0 mm 2 m/s 694 mmHg 25%
16:00 +37°C° 0 mm 2 m/s 694 mmHg 24%
17:00 +35°C° 0 mm 2 m/s 694 mmHg 30%
18:00 +32°C° 0 mm 1 m/s 694 mmHg 36%
19:00 +29°C° 0 mm 1 m/s 694 mmHg 43%
20:00 +28°C° 0 mm 2 m/s 694 mmHg 58%
21:00 +26°C° 0 mm 2 m/s 695 mmHg 73%
22:00 +25°C° 0 mm 2 m/s 695 mmHg 88%
23:00 +24°C° 0 mm 2 m/s 695 mmHg 91%

Demain, 4 Mars, Jeudi

Heure Température Précipitation Vent Pression Humidité
00:00 +23°C° 0 mm 1 m/s 695 mmHg 94%
01:00 +20°C° 0 mm 0 m/s 696 mmHg 97%
02:00 +23°C° 0 mm 1 m/s 695 mmHg 96%
03:00 +23°C° 0 mm 1 m/s 695 mmHg 95%
04:00 +23°C° 0 mm 1 m/s 695 mmHg 94%
05:00 +23°C° 0 mm 1 m/s 695 mmHg 94%
06:00 +23°C° 0 mm 1 m/s 696 mmHg 93%
07:00 +23°C° 0 mm 1 m/s 696 mmHg 92%
08:00 +26°C° 0 mm 1 m/s 697 mmHg 78%
09:00 +29°C° 0 mm 1 m/s 697 mmHg 65%
10:00 +32°C° 0 mm 2 m/s 698 mmHg 52%
11:00 +34°C° 0 mm 2 m/s 697 mmHg 44%
12:00 +36°C° 0 mm 2 m/s 697 mmHg 36%
13:00 +38°C° 0 mm 2 m/s 696 mmHg 28%
14:00 +38°C° 0 mm 2 m/s 695 mmHg 27%
15:00 +38°C° 0 mm 2 m/s 694 mmHg 26%
16:00 +37°C° 0 mm 1 m/s 693 mmHg 25%
17:00 +35°C° 0 mm 2 m/s 693 mmHg 33%
18:00 +32°C° 0 mm 2 m/s 694 mmHg 42%
19:00 +29°C° 0 mm 3 m/s 694 mmHg 50%
20:00 +28°C° 0 mm 3 m/s 694 mmHg 63%
21:00 +26°C° 0 mm 3 m/s 695 mmHg 76%
22:00 +24°C° 0 mm 3 m/s 695 mmHg 88%
23:00 +24°C° 0 mm 2 m/s 696 mmHg 87%

Après-demain, 5 Mars, Vendredi

Heure Température Précipitation Vent Pression Humidité
00:00 +25°C° 0 mm 2 m/s 696 mmHg 85%
01:00 +25°C° 0 mm 2 m/s 696 mmHg 84%
02:00 +24°C° 0 mm 2 m/s 696 mmHg 87%
03:00 +23°C° 0 mm 1 m/s 696 mmHg 91%
04:00 +23°C° 0 mm 1 m/s 695 mmHg 94%
05:00 +23°C° 0 mm 1 m/s 696 mmHg 95%
06:00 +22°C° 0 mm 1 m/s 696 mmHg 95%
07:00 +22°C° 0 mm 1 m/s 696 mmHg 96%
08:00 +25°C° 0 mm 1 m/s 697 mmHg 83%
09:00 +28°C° 0 mm 1 m/s 698 mmHg 69%
10:00 +30°C° 0 mm 2 m/s 698 mmHg 56%
11:00 +34°C° 0 mm 2 m/s 698 mmHg 47%
12:00 +36°C° 0 mm 2 m/s 697 mmHg 38%
13:00 +38°C° 0 mm 2 m/s 697 mmHg 29%
14:00 +37°C° 0 mm 2 m/s 696 mmHg 30%
15:00 +37°C° 0 mm 2 m/s 695 mmHg 31%
16:00 +36°C° 0 mm 2 m/s 694 mmHg 32%
17:00 +32°C° 0 mm 2 m/s 694 mmHg 44%
18:00 +30°C° 0 mm 2 m/s 694 mmHg 57%
19:00 +27°C° 0 mm 3 m/s 694 mmHg 70%
20:00 +26°C° 0 mm 3 m/s 695 mmHg 75%
21:00 +25°C° 0 mm 3 m/s 696 mmHg 79%
22:00 +24°C° 0 mm 3 m/s 697 mmHg 84%
23:00 +24°C° 0 mm 2 m/s 697 mmHg 85%

6 Mars, Samedi

Heure Température Précipitation Vent Pression Humidité
00:00 +24°C° 0 mm 2 m/s 697 mmHg 86%
01:00 +23°C° 0 mm 2 m/s 697 mmHg 88%
02:00 +23°C° 0 mm 1 m/s 696 mmHg 90%
03:00 +23°C° 0 mm 1 m/s 696 mmHg 92%
04:00 +22°C° 0 mm 1 m/s 696 mmHg 94%
05:00 +22°C° 0 mm 1 m/s 696 mmHg 94%
06:00 +22°C° 0 mm 1 m/s 697 mmHg 94%
07:00 +22°C° 0 mm 1 m/s 697 mmHg 94%
08:00 +25°C° 0 mm 1 m/s 698 mmHg 81%
09:00 +28°C° 0 mm 1 m/s 699 mmHg 68%
10:00 +30°C° 0 mm 2 m/s 700 mmHg 54%
11:00 +32°C° 0 mm 2 m/s 699 mmHg 46%
12:00 +35°C° 0 mm 2 m/s 699 mmHg 38%
13:00 +37°C° 0 mm 2 m/s 698 mmHg 30%
14:00 +37°C° 0 mm 2 m/s 697 mmHg 31%
15:00 +36°C° 0 mm 2 m/s 696 mmHg 33%
16:00 +35°C° 0 mm 2 m/s 696 mmHg 34%
17:00 +32°C° 0 mm 2 m/s 696 mmHg 44%
18:00 +30°C° 0 mm 2 m/s 696 mmHg 54%
19:00 +28°C° 0 mm 2 m/s 696 mmHg 63%
20:00 +27°C° 0 mm 2 m/s 696 mmHg 67%
21:00 +26°C° 0 mm 2 m/s 696 mmHg 72%
22:00 +25°C° 0 mm 2 m/s 697 mmHg 76%
23:00 +24°C° 0 mm 2 m/s 697 mmHg 80%

7 Mars, Dimanche

Heure Température Précipitation Vent Pression Humidité
00:00 +23°C° 0 mm 2 m/s 697 mmHg 83%
01:00 +22°C° 0 mm 1 m/s 697 mmHg 87%
02:00 +22°C° 0 mm 1 m/s 697 mmHg 87%
03:00 +23°C° 0 mm 2 m/s 697 mmHg 88%
04:00 +23°C° 0 mm 2 m/s 697 mmHg 89%
05:00 +23°C° 0 mm 2 m/s 697 mmHg 90%
06:00 +22°C° 0 mm 1 m/s 697 mmHg 92%
07:00 +22°C° 0 mm 1 m/s 697 mmHg 94%
08:00 +25°C° 0 mm 1 m/s 698 mmHg 81%
09:00 +27°C° 0 mm 1 m/s 698 mmHg 69%
10:00 +30°C° 0 mm 2 m/s 699 mmHg 56%
11:00 +32°C° 0 mm 2 m/s 699 mmHg 47%
12:00 +35°C° 0 mm 2 m/s 698 mmHg 38%
13:00 +37°C° 0 mm 2 m/s 697 mmHg 29%
14:00 +36°C° 0 mm 2 m/s 697 mmHg 32%
15:00 +36°C° 0 mm 2 m/s 696 mmHg 34%
16:00 +35°C° 0 mm 2 m/s 695 mmHg 36%
17:00 +33°C° 0 mm 3 m/s 695 mmHg 46%
18:00 +29°C° 0 mm 3 m/s 695 mmHg 56%
19:00 +27°C° 0 mm 3 m/s 695 mmHg 65%
20:00 +26°C° 0 mm 3 m/s 696 mmHg 69%
21:00 +25°C° 0 mm 3 m/s 696 mmHg 73%
22:00 +24°C° 0 mm 3 m/s 697 mmHg 77%
23:00 +23°C° 0 mm 2 m/s 697 mmHg 82%

8 Mars, Lundi

Heure Température Précipitation Vent Pression Humidité
00:00 +21°C° 0 mm 2 m/s 696 mmHg 88%
01:00 +22°C° 0 mm 1 m/s 696 mmHg 94%
02:00 +21°C° 0 mm 1 m/s 696 mmHg 95%
03:00 +21°C° 0 mm 1 m/s 696 mmHg 95%
04:00 +21°C° 0 mm 1 m/s 695 mmHg 96%
05:00 +21°C° 0 mm 1 m/s 696 mmHg 95%
06:00 +22°C° 0 mm 1 m/s 696 mmHg 94%
07:00 +22°C° 0 mm 1 m/s 696 mmHg 94%
08:00 +25°C° 0 mm 1 m/s 697 mmHg 79%
09:00 +28°C° 0 mm 1 m/s 698 mmHg 64%
10:00 +31°C° 0 mm 2 m/s 699 mmHg 49%
11:00 +32°C° 0 mm 2 m/s 698 mmHg 46%
12:00 +34°C° 0 mm 2 m/s 697 mmHg 42%
13:00 +35°C° 0 mm 2 m/s 697 mmHg 38%
14:00 +34°C° 0 mm 2 m/s 696 mmHg 41%
15:00 +32°C° 0 mm 2 m/s 695 mmHg 44%
16:00 +31°C° 0 mm 1 m/s 694 mmHg 47%
17:00 +29°C° 0.2 mm 1 m/s 695 mmHg 55%
18:00 +27°C° 0.2 mm 1 m/s 695 mmHg 63%
19:00 +26°C° 0.2 mm 1 m/s 695 mmHg 71%
20:00 +25°C° 0 mm 2 m/s 695 mmHg 77%
21:00 +24°C° 0 mm 2 m/s 696 mmHg 83%
22:00 +23°C° 0 mm 2 m/s 696 mmHg 89%
23:00 +23°C° 0 mm 2 m/s 696 mmHg 90%
Voir plus

Nous avons besoin de votre consentement

Meteoprog et ses fournisseurs de services peuvent stocker et accéder à des données personnelles telles que des cookies, des identifiants d'appareils ou d'autres technologies similaires sur votre appareil et traiter ces données pour personnaliser le contenu et les publicités, ainsi que pour fournir des fonctionnalités de médias sociaux et analyser le trafic.

  • Stocker et/ou accéder à des informations sur votre appareil

    Des cookies, des identifiants d'appareils ou d'autres informations peuvent être stockés ou accessibles sur votre appareil aux fins indiquées ci-dessus.

  • Annonces et contenus personnalisés, mesure des annonces et des contenus, connaissance de l'audience et développement de produits

    Les annonces et le contenu peuvent être personnalisés en fonction d'un profil. D'autres données peuvent être ajoutées pour mieux personnaliser les annonces et le contenu. Les performances des publicités et du contenu peuvent être mesurées. Il est possible d'obtenir des informations sur le public qui a vu les publicités et le contenu. Ces données peuvent être utilisées pour développer ou améliorer l'expérience de l'utilisateur, les systèmes et les logiciels.

En cliquant sur "J'accepte", vous autorisez l'utilisation de cookies, des identifiants d'appareils, des balises web ou d'autres technologies similaires. Vos paramètres peuvent être modifiés dans le navigateur de votre appareil.

Dans certains cas, des intérêts légitimes peuvent être invoqués plutôt qu'un consentement. Vous pouvez en savoir plus à ce sujet dans notre Politique de confidentialité et de cookies.